Starlink 5786

operational
NORAD ID: 56032 Int'l Des: 2023-042 Owner: SPXS Country: US Constellation: starlink
LEOCIRCULAR

Über Starlink 5786

Beschreibung wird geladen...

Live-Position

3D-Globus wird geladen...

Nächste Überflüge

Höhenverlauf

Altitude vs Time

uPlot chart will show altitude changes over time

Zweizeiliger Elementsatz

1 56032U 23042AY 25351.72207866 .00000534 00000-0 54605-4 0 9997
2 56032 43.0027 128.1947 0001081 250.8084 109.2641 15.02543503150730
Epoch: 17. Dez. 2025 • Age: 15 hours

Aktueller Status

Höhe 562.9 km
Geschwindigkeit 7.59 km/s
Subsatellitenpunkt 43.12°N, 3.34°E
Startdatum 24. März 2023
Alter 2.7 years
Typ internet

Technische Details

Klassifizierung Payload
Masse 305.00 kg
Trockenmasse 290.00 kg
Gesamtmasse 305.00 kg
Länge 0.20 m
Durchmesser 2.80 m
Spannweite 9.00 m
Form Box + pan
Hersteller SPXS
Bus-Typ Starlink
Phasenstatus In Orbit
Besitzer/Staat SPXS/US

Große Konstellationen

Loading constellations...